Satellite: TechEdSat
Catalog number: 38854
Epoch time:      12355.20340013
Element set:      88
Inclination:      051.6464 deg
RA of node:       275.0140 deg
Eccentricity:    0.0015647
Arg of perigee:   081.6445 deg
Mean anomaly:     278.6316 deg
Mean motion:   15.60214634 rev/day
Decay rate:     7.4038e-04 rev/day^2
Epoch rev:            1190
Checksum:              274

Satellite: F 1
Catalog number: 38855
Epoch time:      12355.78658609
Element set:      92
Inclination:      051.6437 deg
RA of node:       272.1539 deg
Eccentricity:    0.0015825
Arg of perigee:   080.5116 deg
Mean anomaly:     279.8185 deg
Mean motion:   15.60022689 rev/day
Decay rate:     6.8938e-04 rev/day^2
Epoch rev:            1188
Checksum:              341

Satellite: WeWish
Catalog number: 38856
Epoch time:      12355.16716114
Element set:     105
Inclination:      051.6452 deg
RA of node:       274.0145 deg
Eccentricity:    0.0017616
Arg of perigee:   075.8657 deg
Mean anomaly:     284.4294 deg
Mean motion:   15.65036735 rev/day
Decay rate:    1.30784e-03 rev/day^2
Epoch rev:            1180
Checksum:              297

/EX




More information about the Keps mailing list